Wind_Speed
63 59 57 56 56 56 56 57 58 57 55 53 52 52 53 53 52 51 50 49 50 50 50 49 48 47 46 46 46 45 45 44 44 43 42 41 39 39 39 38 37 35 33 33 33 33 34 38 41 43 45 49 52 53 54 55 55 54 53 53 53 53 54 55 56 58 59 59 60 60 59 59 60 61 63 64 64 64 65 66 66 67 67 69 70
58 55 52 52 53 54 55 56 55 54 53 52 51 51 52 52 50 48 48 48 48 48 47 45 43 42 42 42 42 42 42 41 41 40 39 37 37 37 36 35 34 32 32 32 32 33 36 39 41 44 47 51 53 55 56 56 56 55 55 55 55 55 55 56 58 59 60 60 61 61 61 61 62 62 63 63 63 64 65 65 66 66 67 69 70
55 51 49 48 50 51 51 52 52 51 51 50 50 50 50 48 46 45 46 46 45 44 42 40 39 39 39 39 39 39 39 38 37 36 35 35 36 35 33 33 32 31 31 32 32 34 37 40 42 46 50 54 55 56 57 57 57 58 58 59 58 56 56 58 60 61 62 62 63 63 63 62 62 62 62 62 63 64 65 66 66 67 68 69 71
52 49 47 47 47 47 47 48 48 48 48 48 48 47 46 43 42 42 43 43 41 39 38 37 37 36 36 35 35 36 36 35 34 34 34 35 34 32 32 31 30 29 30 32 33 35 38 41 44 48 53 55 57 58 59 59 59 60 61 62 61 59 59 61 65 66 64 64 65 64 63 62 61 61 61 61 62 63 65 66 67 67 68 70 71
49 48 47 47 46 46 46 46 46 46 46 46 45 44 41 39 39 40 40 39 37 35 35 35 34 33 33 34 34 35 35 34 34 34 34 33 32 32 31 30 28 29 31 32 33 36 39 42 46 50 54 56 58 60 61 60 61 62 63 64 63 63 62 64 68 68 65 67 67 64 63 61 60 60 60 60 61 62 64 66 68 69 70 71 72
46 47 47 46 46 46 45 44 44 44 44 44 42 40 38 37 38 38 36 34 33 33 32 32 31 31 32 34 35 35 35 35 35 34 33 33 32 31 31 30 30 31 32 32 34 37 40 43 47 52 55 56 58 61 61 61 61 63 65 65 65 66 65 67 70 68 66 70 71 66 63 61 59 59 59 60 61 62 64 66 67 69 71 73 74
45 46 46 46 46 45 44 43 43 43 43 42 39 37 36 36 36 34 32 31 30 30 29 28 29 31 33 34 35 34 34 35 34 33 32 32 32 31 31 32 32 32 33 34 35 38 42 44 48 52 55 56 58 61 62 62 62 63 66 67 67 67 68 70 72 69 68 73 74 68 62 60 58 58 59 60 62 63 65 66 67 69 72 74 76
44 45 45 45 45 44 43 42 42 42 40 39 37 35 34 34 33 31 29 29 28 28 27 28 29 31 33 34 34 34 34 34 32 31 32 32 31 31 33 34 34 34 34 34 35 39 43 45 48 52 54 55 59 61 61 62 63 64 66 68 69 69 70 71 73 71 71 74 74 67 61 58 57 58 59 60 62 64 65 66 68 70 72 75 77
44 44 44 44 44 43 42 41 41 39 38 37 36 34 33 32 30 29 28 28 28 28 28 29 30 31 32 34 34 34 34 32 30 31 31 31 31 33 35 36 35 34 34 34 36 40 43 45 49 52 53 55 59 61 62 63 64 64 66 69 70 71 72 73 74 74 75 75 71 64 59 57 57 58 59 61 63 64 65 66 68 70 72 75 76
44 44 44 44 43 42 41 40 39 39 39 38 35 32 31 30 29 28 29 29 29 30 30 30 30 31 33 34 34 33 32 31 31 32 31 30 31 33 35 36 35 34 34 34 36 41 44 45 49 53 54 56 60 63 64 65 66 65 66 69 72 73 74 74 75 77 78 74 67 61 57 56 57 58 59 61 62 63 64 66 68 70 72 74 75
46 45 44 44 42 42 41 39 39 39 39 37 33 31 32 30 29 29 30 31 32 31 31 31 31 32 33 34 35 33 31 30 32 33 32 31 31 33 35 36 36 36 35 34 38 43 44 46 51 54 55 57 62 65 66 68 69 67 67 70 73 75 76 76 76 78 78 73 64 59 57 56 57 58 60 61 62 62 64 66 68 70 72 73 74
47 46 44 43 42 41 40 38 39 40 38 35 32 32 32 31 30 31 32 33 33 32 32 32 32 32 33 35 34 31 28 29 32 33 33 33 33 34 36 36 37 37 35 36 41 44 44 48 52 54 56 58 63 67 69 71 71 69 68 70 74 76 77 77 77 79 79 72 64 59 58 58 58 59 60 61 62 62 64 67 69 70 72 72 72
47 46 44 42 42 41 39 39 40 39 37 34 33 33 33 32 32 33 34 34 33 32 33 33 33 33 34 34 33 29 28 30 33 33 34 35 34 34 34 35 36 35 35 37 42 43 45 50 53 55 57 59 64 68 70 73 73 70 68 70 74 77 78 79 79 79 79 73 64 59 59 59 60 61 61 61 61 63 65 67 69 70 71 71 71
47 45 43 42 42 41 40 40 40 39 37 35 33 33 34 34 33 34 34 33 33 33 34 34 34 35 34 33 32 31 31 32 33 33 33 34 34 33 33 33 33 33 36 40 43 45 48 51 53 55 57 60 65 69 72 74 73 69 68 70 73 76 79 80 80 80 78 73 65 61 60 60 61 61 61 61 62 63 65 67 69 71 71 71 71
47 45 44 43 42 42 41 41 41 40 38 36 35 35 35 35 35 34 34 33 33 33 35 36 35 35 34 34 34 34 33 32 32 32 32 31 33 33 33 32 33 36 40 44 45 47 50 51 52 55 58 62 66 69 73 75 73 69 68 70 73 76 79 81 81 80 77 72 66 62 61 62 62 61 61 61 62 64 65 67 69 70 71 71 71
47 47 46 45 44 43 43 44 43 42 40 38 36 36 36 37 36 34 33 33 33 34 35 37 36 35 35 35 36 37 35 33 32 33 34 34 36 35 34 35 38 40 43 45 46 48 50 50 52 56 60 64 67 70 74 74 71 68 68 70 73 77 79 81 81 79 76 72 67 64 63 63 62 61 61 62 63 64 65 67 68 70 70 70 71
49 48 48 47 46 46 46 46 46 45 43 39 37 36 37 37 36 34 34 34 33 34 36 37 37 37 36 37 38 38 36 34 34 36 38 41 41 39 38 40 42 43 44 47 48 49 50 50 53 57 62 65 68 72 74 73 69 68 68 70 74 77 79 80 80 78 75 72 69 66 65 64 64 62 62 62 63 64 65 66 68 69 69 69 70
51 50 49 49 49 49 48 48 48 47 44 40 38 37 36 36 37 36 35 35 34 35 37 38 39 39 37 36 37 36 35 37 38 39 42 45 45 44 44 46 47 47 48 49 50 50 51 52 54 59 64 67 70 72 73 71 68 67 68 71 74 76 78 79 79 78 75 73 71 68 66 66 65 64 63 63 64 64 65 66 67 68 68 68 69
53 52 52 51 51 50 49 49 49 47 45 42 39 37 36 37 38 38 37 37 36 36 38 39 40 39 36 35 36 37 38 41 43 42 44 46 47 48 49 51 51 51 51 52 51 51 51 53 56 61 65 68 70 71 71 69 67 67 69 71 73 75 78 79 80 78 76 74 72 69 67 67 66 65 64 64 64 64 64 65 66 67 67 68 69
55 54 53 51 50 50 50 50 49 48 45 43 40 38 37 38 39 40 40 40 39 38 39 40 40 39 36 36 38 38 39 41 42 43 45 47 48 48 49 50 51 52 53 52 50 50 52 55 59 63 66 68 69 70 70 68 67 66 69 71 74 76 78 80 81 80 78 75 72 69 68 67 66 65 64 64 64 63 63 64 66 66 66 67 68
55 53 52 51 50 51 51 51 50 48 46 43 41 40 39 39 41 42 42 42 42 41 40 41 42 40 38 37 38 39 40 41 42 45 47 49 50 50 49 49 50 51 51 49 49 51 54 58 61 64 66 67 68 69 69 67 66 66 69 72 74 76 79 81 83 82 79 75 72 69 68 67 66 64 63 63 63 63 63 63 65 65 65 66 68
54 53 53 53 53 54 54 53 51 49 46 44 43 42 41 42 43 45 45 46 45 43 42 42 43 43 41 40 42 43 43 42 43 45 46 48 48 48 46 45 46 47 47 47 50 54 57 61 63 64 65 67 69 70 69 67 65 66 69 72 75 77 79 82 84 84 81 76 72 69 68 67 65 63 61 61 61 61 62 62 64 65 65 65 66
55 55 55 56 56 56 56 54 51 49 46 44 42 42 43 45 46 47 47 47 46 44 42 42 43 44 44 43 44 46 44 42 42 44 44 44 44 44 44 45 46 47 48 50 54 58 60 62 63 63 65 68 71 71 68 66 65 67 70 73 75 77 80 83 85 85 82 76 72 70 68 67 64 61 59 60 60 60 61 62 63 64 64 65 66
57 57 58 58 58 57 55 53 51 48 45 42 41 43 46 48 49 48 46 44 45 45 43 43 43 44 44 43 44 44 42 41 42 43 44 45 45 45 46 47 47 49 51 55 58 60 61 61 62 63 67 71 72 70 68 66 66 68 72 74 76 78 81 84 86 86 82 77 72 70 69 67 63 58 57 58 59 59 60 61 63 64 64 65 66
59 59 60 59 57 56 55 53 51 47 43 41 42 45 46 45 44 42 41 41 42 43 43 42 41 40 41 43 42 40 40 41 42 43 44 45 46 48 49 49 49 52 55 58 59 59 58 60 63 67 70 72 71 69 67 66 67 70 73 75 76 79 82 85 87 86 81 76 72 70 69 66 60 56 55 57 57 58 60 61 62 63 64 65 66
60 60 59 58 57 57 56 53 50 47 43 42 44 46 46 42 37 34 35 37 39 41 41 39 36 34 38 44 44 39 38 40 41 43 44 45 47 50 52 52 53 54 56 57 57 57 58 62 66 69 71 71 70 68 67 66 68 71 73 75 76 79 82 86 88 86 81 75 72 70 68 63 56 54 55 56 56 57 59 61 62 63 64 65 67
62 61 60 59 58 57 56 53 50 46 43 44 47 47 47 44 39 35 35 37 39 42 41 37 35 36 41 47 46 41 40 41 41 43 46 50 52 54 55 55 55 56 57 58 59 59 63 66 68 69 70 70 69 68 67 67 69 72 74 75 77 80 83 86 88 86 80 75 70 68 64 58 53 53 54 55 56 57 59 61 62 62 63 65 67
64 63 61 60 59 59 57 54 52 48 46 47 49 47 45 45 42 40 40 42 44 44 43 43 43 44 46 48 48 48 49 49 46 45 48 52 55 56 57 57 57 58 59 60 60 63 66 67 68 69 70 69 68 68 67 68 70 73 74 75 77 80 83 87 89 86 80 73 68 64 59 54 52 53 54 55 55 57 59 60 61 62 62 64 66
65 63 62 61 60 60 59 57 55 51 49 49 50 47 44 44 44 43 43 45 47 45 43 44 44 43 44 48 51 53 54 52 50 50 52 53 54 55 55 56 57 59 60 61 62 64 65 66 68 70 70 69 68 68 68 69 72 74 76 76 78 81 84 87 88 85 78 70 65 59 54 52 52 53 54 55 55 56 58 60 60 61 62 63 64
65 64 63 63 63 62 62 61 58 54 51 51 52 50 48 47 47 46 45 47 49 46 42 41 41 43 48 53 56 57 55 53 53 55 56 55 54 54 55 56 57 58 59 61 63 64 66 68 70 70 69 68 68 68 69 71 74 76 77 78 79 81 84 87 87 82 74 67 61 55 51 51 52 53 55 55 55 56 58 59 59 60 61 62 62
64 64 64 65 65 65 65 63 58 54 53 53 53 52 49 48 48 49 48 48 51 50 47 45 46 49 53 56 57 58 59 59 60 61 60 59 59 58 58 58 58 58 59 61 63 66 68 70 70 69 68 68 68 68 70 73 76 78 79 79 80 82 85 87 86 80 71 65 58 53 50 50 52 54 55 55 55 56 58 58 59 59 60 61 61
65 66 67 67 67 66 64 62 58 55 54 54 53 52 48 46 46 49 49 48 49 51 52 52 53 54 56 58 59 60 61 62 63 64 63 63 63 63 62 61 60 61 62 63 65 68 69 69 68 68 68 68 69 70 73 75 77 79 80 80 81 83 85 87 85 77 69 62 56 51 50 51 53 54 55 55 56 57 58 58 58 58 59 60 60
68 69 68 68 67 66 64 62 60 58 56 56 56 54 50 48 48 49 50 49 50 52 54 54 54 55 57 59 61 62 62 62 62 63 63 63 63 63 63 63 64 65 65 66 68 69 69 67 67 68 68 69 71 73 75 77 79 79 80 80 82 84 86 87 83 76 67 61 55 51 51 53 54 55 55 55 56 57 58 58 57 57 58 59 60
71 70 70 69 68 67 66 64 62 61 59 59 60 58 53 50 50 50 50 50 50 51 51 50 51 54 57 59 60 60 60 60 60 61 62 62 62 62 63 64 66 67 68 68 68 68 67 66 67 68 70 71 73 75 78 79 80 80 80 81 83 86 87 86 83 75 66 59 54 51 52 53 55 56 56 56 57 58 58 58 57 57 58 59 59
73 72 72 71 70 68 67 65 63 62 61 60 60 59 55 51 50 50 51 52 52 53 54 55 56 59 60 59 59 60 59 57 58 59 59 59 60 62 63 64 66 67 67 67 66 66 67 67 68 69 71 73 76 78 80 80 80 81 82 83 85 88 87 86 82 74 65 59 55 52 52 53 55 56 57 57 57 58 58 57 57 56 58 59 59
71 72 71 70 68 66 65 63 61 60 59 58 59 58 54 51 50 50 49 50 51 53 57 61 62 63 63 62 62 60 56 53 54 56 58 60 61 62 62 63 64 65 65 64 65 66 68 69 70 72 74 76 78 79 79 80 81 83 84 86 88 88 87 85 80 73 65 59 55 53 53 54 55 56 57 57 57 58 58 57 57 56 57 58 59
63 65 65 64 63 62 61 60 59 58 57 56 55 55 52 49 46 45 46 48 49 52 57 61 63 63 62 62 61 57 53 53 56 60 62 63 63 62 61 62 62 63 63 65 66 68 70 71 73 75 76 78 78 79 79 81 83 85 87 88 89 88 86 83 79 72 65 59 56 54 54 55 55 56 57 57 58 58 57 57 57 56 57 58 59
59 60 60 59 59 59 59 58 57 57 58 57 55 54 52 49 47 46 47 46 45 46 49 54 56 57 56 55 55 55 56 59 62 63 63 63 62 61 61 62 62 64 66 69 71 72 73 74 75 76 76 77 78 79 81 84 86 87 89 90 89 88 86 82 78 71 65 59 56 55 55 56 56 57 57 58 57 57 57 56 56 56 56 57 58
61 60 59 58 58 58 58 58 58 58 60 60 58 55 52 50 49 51 52 50 49 50 53 56 58 58 56 56 57 59 61 62 62 61 61 61 62 62 63 64 66 69 71 72 72 72 73 74 74 75 76 77 79 81 84 86 88 89 91 90 89 88 85 82 76 70 64 60 57 56 56 56 56 57 57 57 57 57 56 56 56 56 56 57 58
64 62 60 59 58 58 58 59 60 60 60 58 57 55 52 50 50 52 54 55 57 59 60 62 62 61 60 61 62 63 63 62 60 60 60 61 62 64 66 68 70 71 71 71 72 72 73 73 74 75 76 79 82 85 87 89 90 91 91 90 89 88 85 80 75 69 64 61 59 58 57 57 57 57 57 57 57 56 56 56 56 56 57 57 57
66 64 62 59 58 59 60 61 61 60 58 55 54 52 50 49 52 56 56 57 58 59 59 61 61 60 60 61 62 62 62 61 61 61 62 64 65 66 68 70 71 71 72 72 73 73 74 74 75 77 79 82 85 87 89 91 92 92 91 90 89 88 84 79 73 68 64 62 60 59 58 57 57 57 56 56 56 55 55 55 56 56 57 57 57
66 65 63 62 60 60 60 60 59 59 58 56 54 52 49 49 53 57 59 59 59 58 57 59 61 62 62 63 63 63 63 63 63 64 65 66 67 68 70 71 72 72 72 73 73 74 74 76 77 80 83 86 88 90 91 92 92 91 91 90 90 87 83 78 72 67 64 62 60 58 58 57 57 57 56 56 55 55 55 55 56 56 57 57 56
64 62 60 60 61 61 60 59 58 56 55 54 55 56 55 54 55 57 59 59 59 59 59 60 62 64 65 66 66 65 65 64 64 65 66 67 68 69 70 70 70 71 72 73 74 75 77 79 81 84 87 89 91 92 92 92 91 91 91 90 89 86 82 77 72 68 65 63 60 58 58 57 57 57 56 55 55 55 55 56 56 57 57 57 56
63 60 54 50 51 55 58 60 61 59 57 56 58 60 61 61 60 61 62 64 65 66 66 65 65 66 67 66 65 64 64 63 64 65 66 67 68 69 69 70 71 72 73 75 77 79 81 84 86 88 90 92 92 92 92 92 91 91 91 89 87 85 81 76 72 68 66 64 61 59 58 58 57 57 56 56 55 55 56 56 56 57 57 56 56
67 64 58 50 47 50 55 58 61 62 63 64 64 65 67 67 68 68 69 70 72 72 71 69 66 65 65 65 65 65 65 65 66 67 68 69 69 70 72 73 73 75 77 79 81 84 86 88 90 91 92 92 93 92 92 91 91 91 90 88 86 83 79 75 72 69 67 65 62 60 59 58 57 57 56 56 56 56 56 56 57 57 56 56 56
70 68 65 61 58 58 60 61 61 63 67 69 69 70 71 72 72 71 71 72 72 72 71 70 68 67 67 67 67 67 68 68 69 69 70 71 71 72 73 75 77 79 82 84 86 88 90 91 91 92 92 92 91 91 91 91 91 91 90 88 85 82 79 75 72 70 67 64 62 61 59 59 58 58 57 57 56 56 56 57 57 56 56 56 56
67 67 67 68 69 69 69 68 67 67 70 73 74 75 75 74 73 72 72 72 72 70 69 68 68 68 68 69 69 69 70 70 71 72 73 74 75 76 78 80 83 85 87 88 90 91 91 91 91 92 91 90 90 90 90 91 91 90 89 87 85 82 78 75 72 70 67 64 62 62 61 60 60 59 58 58 57 57 57 57 57 57 57 56 56
63 63 64 67 71 73 73 72 70 69 71 74 76 77 77 76 76 75 74 74 73 72 71 71 71 71 71 71 72 73 74 74 75 76 78 79 81 82 84 85 87 88 89 90 91 92 92 91 91 90 90 89 90 91 91 91 91 90 89 87 85 82 79 76 73 71 68 65 64 63 63 62 61 60 59 59 58 58 58 58 57 57 57 56 56
63 62 62 64 68 71 72 71 69 69 70 73 76 77 77 77 76 76 76 76 77 76 76 76 76 77 77 77 78 79 79 80 81 82 83 84 86 87 87 88 89 89 90 90 91 91 92 92 91 90 90 90 91 92 92 92 91 90 89 87 84 82 79 77 74 72 69 67 66 65 64 64 63 61 60 60 59 59 59 58 57 57 57 57 57
63 63 64 65 68 70 71 71 70 69 70 73 75 77 77 76 76 76 77 78 79 79 80 80 80 81 81 82 82 83 83 84 85 86 87 88 89 89 89 89 89 90 90 90 91 92 92 92 92 92 92 92 93 93 93 92 91 90 88 86 84 81 79 77 75 73 71 69 68 67 66 65 64 63 61 60 60 59 59 58 57 57 57 58 58
67 67 67 67 69 71 73 73 73 72 71 72 74 76 77 77 77 77 78 78 79 80 81 82 82 83 84 84 85 85 86 86 87 88 88 89 89 89 89 90 90 90 91 92 93 93 93 93 93 93 94 94 94 94 94 93 91 89 87 84 83 81 79 77 76 74 72 70 69 68 67 66 64 63 62 60 59 59 59 58 58 58 58 59 60
Wind_Direction
248 249 250 250 251 252 253 254 257 260 263 264 265 267 269 270 271 273 275 276 276 277 278 279 281 283 285 286 286 287 289 291 292 294 296 297 298 299 300 303 306 309 312 316 320 323 327 332 334 336 337 338 338 337 336 335 335 335 335 334 333 332 330 329 327 326 324 323 322 321 320 320 319 319 318 319 319 319 319 320 321 322 323 323 324
249 251 251 251 251 251 253 255 258 260 262 263 264 265 266 268 270 272 274 274 275 276 277 280 282 283 283 284 285 287 289 291 293 294 296 296 296 298 301 304 306 308 311 315 320 324 328 333 336 337 337 338 338 337 336 337 337 337 337 337 336 334 334 333 332 330 327 325 324 322 321 321 320 319 319 319 319 319 319 320 322 323 323 324 324
247 249 250 251 250 251 252 254 257 258 259 261 262 263 264 266 269 270 271 272 273 275 278 280 281 281 281 283 286 288 290 292 293 294 294 294 296 298 302 304 305 307 310 316 320 324 329 335 336 337 338 338 338 337 338 339 339 340 339 339 337 335 335 335 334 331 328 326 324 323 322 321 320 320 319 319 319 319 320 321 322 323 324 325 325
246 248 249 249 250 250 251 253 254 256 257 259 260 261 263 265 267 267 268 269 272 275 278 278 279 280 282 285 287 288 290 292 292 292 293 294 296 299 301 302 304 307 311 315 320 324 330 334 336 336 337 338 338 338 339 341 341 341 341 340 338 335 333 333 333 331 329 327 326 325 323 322 321 320 319 319 319 320 321 322 323 324 325 325 325
246 246 247 247 248 249 250 251 252 254 256 257 258 260 262 264 264 264 266 269 273 275 276 277 279 282 284 286 287 288 290 290 290 292 293 294 295 298 299 299 303 307 311 315 319 323 329 332 333 335 336 336 337 339 340 341 341 342 342 341 339 337 333 331 332 331 330 330 328 325 324 323 321 320 319 319 320 321 323 324 324 325 325 325 325
245 245 245 245 246 247 248 249 250 252 254 255 257 260 261 261 261 262 266 270 273 274 275 278 282 283 285 287 288 289 289 288 290 292 292 293 294 296 296 297 301 305 308 312 317 323 327 329 331 333 334 335 337 338 339 340 341 342 343 341 339 337 334 332 331 330 329 331 329 325 324 323 321 320 320 321 322 323 324 325 325 325 325 325 326
243 243 244 244 245 246 246 247 248 250 251 254 256 258 257 257 259 263 268 270 271 272 276 280 283 285 287 289 290 289 288 289 291 291 291 292 294 294 294 296 300 301 303 309 315 321 325 327 329 332 333 334 336 337 339 340 340 342 342 342 339 337 335 334 333 330 327 329 329 326 323 322 321 321 322 323 324 325 325 325 325 325 326 326 327
239 241 242 243 244 244 244 245 246 248 250 252 253 253 253 255 259 264 267 267 269 273 278 282 285 288 291 292 291 290 289 290 290 289 291 294 295 294 294 296 299 300 301 306 313 320 323 324 327 330 331 332 335 337 338 339 339 340 342 341 339 337 335 334 334 332 329 328 329 326 323 322 322 322 324 324 325 325 326 326 326 326 327 327 328
237 238 240 241 242 243 243 243 244 245 247 248 248 249 251 255 259 262 263 265 269 274 279 283 287 292 293 293 292 291 290 289 287 289 294 297 298 297 295 296 298 298 300 305 312 318 320 321 325 328 329 331 333 335 337 338 338 339 340 340 339 337 336 335 335 334 331 330 329 326 324 323 324 324 325 325 325 326 326 326 326 327 327 328 329
234 235 237 239 239 240 240 240 241 243 244 245 245 247 251 253 256 259 262 266 270 274 279 284 289 293 293 294 293 292 289 286 286 290 295 297 298 297 297 297 297 297 299 303 311 317 318 319 324 327 327 329 331 333 336 337 337 337 338 338 338 338 336 335 335 334 333 332 330 328 326 326 326 326 326 326 326 326 326 326 326 327 328 329 329
231 233 234 235 235 236 237 238 240 241 243 244 244 246 249 252 255 259 263 267 270 276 281 285 290 292 293 294 293 290 287 285 287 290 292 295 297 297 299 299 296 295 294 299 309 315 316 318 323 326 326 326 327 330 334 335 335 335 336 337 338 337 336 335 334 334 335 334 331 329 329 328 328 327 327 326 326 326 326 326 327 328 329 330 330
231 231 231 232 232 233 234 236 238 240 242 243 242 244 250 253 256 259 264 268 273 278 283 286 290 292 292 292 290 288 286 285 287 288 293 298 301 299 298 296 292 291 291 297 308 313 315 319 323 324 324 323 323 327 331 332 332 333 335 336 336 337 335 334 333 334 335 335 332 331 330 329 328 328 327 327 326 325 325 326 327 328 329 330 331
231 231 230 230 230 232 233 235 237 239 241 241 241 245 251 255 258 261 266 270 275 279 283 287 290 290 290 289 288 287 285 284 285 290 297 301 300 297 295 292 289 289 293 301 309 312 316 321 323 322 322 321 322 325 328 329 330 332 333 334 335 336 335 333 333 334 335 335 333 331 330 329 328 327 327 327 326 325 325 326 328 329 330 331 332
230 230 230 230 230 231 233 234 236 238 240 241 242 246 252 256 260 263 267 271 275 280 285 288 288 288 288 287 286 285 283 281 285 292 296 295 293 294 295 293 291 292 299 307 311 313 316 321 321 319 319 319 321 323 325 327 329 331 332 333 334 335 334 333 333 334 335 335 333 330 329 327 327 326 327 326 325 325 326 327 328 330 330 331 333
228 229 229 230 230 231 232 234 235 237 239 241 243 246 252 257 261 265 269 272 277 282 285 286 287 288 287 285 285 285 284 283 285 290 290 285 286 292 295 295 294 297 304 309 310 312 315 318 317 316 316 318 319 321 324 325 327 329 330 331 333 334 334 333 332 333 334 334 332 329 327 326 326 326 326 326 325 325 326 328 329 331 331 332 334
225 227 229 230 230 230 231 233 235 236 239 241 242 246 252 257 263 267 270 274 278 282 283 285 287 286 283 284 286 286 283 281 282 283 283 281 283 287 292 294 296 299 304 307 308 309 312 315 315 314 315 316 318 320 322 324 326 328 329 330 332 333 333 332 332 332 333 332 330 328 326 326 326 326 326 325 325 325 327 328 330 331 332 333 335
224 226 228 230 231 231 231 233 235 237 239 241 242 246 251 258 264 269 271 274 278 281 282 284 283 281 281 284 287 286 280 278 278 278 277 278 281 284 289 293 295 298 302 304 305 307 310 313 313 313 314 315 316 318 320 322 324 326 327 329 331 332 332 332 331 331 331 330 328 326 325 326 326 326 325 324 324 325 327 329 331 331 333 334 335
223 225 227 229 231 232 233 234 237 239 241 243 244 247 252 258 264 268 271 275 278 279 280 279 278 279 282 283 284 283 280 278 279 279 279 279 280 281 284 289 293 296 300 302 302 306 310 311 311 311 312 313 314 317 319 322 323 325 326 328 331 332 332 331 330 330 330 328 326 323 323 324 325 325 324 323 324 325 327 329 331 332 333 335 336
222 223 225 227 230 233 235 237 239 242 244 246 248 251 255 259 264 268 272 274 276 277 277 276 275 277 279 279 279 279 278 277 277 279 282 284 283 281 282 286 289 293 295 297 300 304 308 308 308 310 312 312 314 317 319 321 322 323 325 328 330 331 331 331 330 329 328 327 325 322 319 320 322 322 322 322 323 325 327 329 331 332 334 335 336
222 223 225 227 230 234 236 238 241 243 245 247 250 253 256 260 264 268 272 275 277 276 272 271 272 274 276 279 279 278 278 278 277 278 283 288 288 285 284 285 286 288 290 293 298 302 305 306 308 310 311 311 314 316 318 319 321 323 325 327 329 330 331 331 330 328 327 326 324 321 318 318 319 319 320 321 323 325 327 330 332 333 334 335 336
223 224 227 229 231 233 236 238 240 243 245 248 251 254 256 259 263 268 272 276 277 275 270 270 271 272 273 274 275 277 278 278 277 279 286 292 291 288 287 286 285 287 289 292 297 300 303 307 309 309 309 311 314 316 317 318 320 322 324 326 328 329 330 331 330 328 326 324 323 320 318 317 317 317 318 320 322 324 327 330 332 333 334 335 336
224 226 228 230 231 233 235 237 240 243 245 248 251 254 258 260 264 269 273 275 277 275 271 269 270 273 272 270 274 281 283 280 278 282 289 293 290 288 289 287 286 288 290 292 296 300 304 307 307 306 307 311 314 315 315 317 319 320 322 324 326 328 330 330 329 327 325 323 321 319 318 318 317 316 317 319 322 324 327 330 332 333 334 335 336
225 227 230 231 232 233 235 238 241 243 246 250 255 259 262 265 267 270 271 272 273 272 269 267 269 271 271 269 276 285 286 281 280 284 289 290 285 284 285 286 287 288 289 291 296 301 304 304 303 305 308 311 312 313 313 315 317 319 320 323 325 328 330 330 329 326 324 322 320 318 318 318 317 316 317 319 322 324 328 331 333 333 333 335 337
225 228 230 232 234 235 237 240 242 245 249 254 258 262 265 267 267 266 266 267 268 267 268 268 269 270 271 272 279 286 284 280 280 284 286 285 280 279 282 284 285 286 289 293 299 301 301 301 303 305 308 309 310 310 312 314 316 317 320 322 325 327 330 330 328 326 323 321 318 317 318 319 317 316 318 320 322 325 329 332 333 333 333 335 337
225 228 231 233 235 237 239 241 243 246 249 253 258 261 264 267 267 264 263 265 266 267 269 270 270 272 272 273 279 284 281 278 281 284 285 283 280 281 284 285 286 288 292 296 298 298 298 301 303 305 306 307 307 308 310 312 314 317 319 322 325 328 330 330 328 325 322 320 317 317 318 318 317 317 318 320 322 326 330 333 333 333 333 335 337
226 229 231 234 236 238 240 242 244 247 249 252 258 260 260 264 270 269 265 265 266 268 269 271 273 274 273 273 277 282 279 277 280 282 281 278 279 282 285 287 289 291 293 294 294 295 297 300 301 302 304 304 305 307 309 311 314 317 319 322 325 328 330 329 327 324 321 318 316 317 318 317 316 317 319 321 323 327 331 333 333 333 334 335 337
226 228 231 233 236 238 241 243 245 247 248 251 256 258 256 260 267 271 268 267 267 267 269 272 272 273 274 274 276 278 278 277 277 277 277 277 279 283 285 288 290 291 291 291 292 293 295 297 299 301 303 303 304 306 308 310 313 317 319 322 325 328 329 329 326 323 320 317 316 317 317 316 316 318 319 321 324 329 332 332 332 333 334 335 336
226 228 230 232 235 238 241 243 244 244 244 248 252 254 255 258 264 268 268 268 269 270 272 275 276 278 278 276 274 277 280 279 277 277 279 279 279 280 283 286 288 288 288 288 289 290 293 296 299 301 302 303 304 306 307 310 313 316 319 322 325 328 329 328 326 323 320 317 316 316 316 315 317 318 319 322 325 329 331 332 332 332 334 335 336
227 228 230 232 234 237 239 241 241 241 242 246 250 252 253 257 261 263 262 261 265 271 275 276 274 271 269 268 271 277 280 279 279 281 281 281 280 280 282 285 285 284 284 286 288 291 294 297 299 301 301 302 303 305 307 310 313 316 318 321 324 327 329 328 326 323 319 317 315 315 315 315 317 319 319 322 326 330 331 331 332 332 333 335 336
227 229 231 233 234 236 238 239 240 240 242 247 248 248 248 251 254 255 255 255 259 265 269 268 263 259 259 264 271 276 279 279 280 280 280 281 282 283 284 286 287 287 288 290 292 294 295 296 298 299 300 301 303 305 307 310 313 315 318 320 323 326 328 328 326 323 319 316 314 314 314 315 317 318 319 322 326 329 330 331 331 332 333 334 335
228 230 232 234 235 237 238 240 241 242 244 247 247 245 247 250 252 254 254 254 257 260 260 257 257 259 261 266 271 276 279 281 281 279 278 280 280 281 283 286 288 291 293 294 295 294 294 295 297 298 299 300 302 304 307 310 313 315 317 319 322 325 328 329 327 323 318 315 313 313 314 316 317 317 319 322 326 328 329 330 330 331 332 333 334
229 230 232 234 236 238 240 242 243 244 245 248 247 246 248 251 253 255 257 257 257 260 260 259 260 262 263 267 271 274 276 277 278 278 277 277 278 279 280 282 285 288 291 293 294 293 294 295 297 298 299 300 302 305 307 310 312 314 316 319 322 325 328 329 327 323 318 314 313 313 315 316 316 317 319 322 325 327 328 329 329 330 331 332 333
230 231 233 234 237 239 241 243 244 245 246 247 245 244 246 249 251 255 260 260 259 261 263 265 265 265 265 267 270 272 273 274 275 274 274 275 277 278 279 280 283 285 287 290 291 293 294 295 296 297 299 301 303 305 308 309 311 313 316 318 321 325 327 328 327 323 318 315 313 313 315 316 316 316 318 321 324 326 327 328 328 329 329 331 332
232 233 235 236 238 240 241 243 245 245 246 245 243 241 245 250 252 255 260 260 259 259 262 264 264 263 265 266 268 271 274 273 271 271 273 276 278 279 280 281 282 284 285 288 291 293 294 296 297 298 300 302 303 305 307 308 310 313 315 317 320 324 326 328 327 324 319 316 313 313 314 315 315 316 319 321 324 325 326 326 327 328 328 329 331
234 235 237 238 239 241 243 244 245 245 245 244 241 240 244 251 253 255 259 261 260 261 263 263 262 262 263 265 267 271 273 271 270 272 276 279 281 281 281 282 282 284 286 289 291 293 294 296 298 299 300 302 303 305 307 308 310 312 314 316 320 323 326 328 327 323 319 315 313 313 314 314 314 315 318 320 323 324 325 325 326 327 327 328 330
235 236 237 239 240 241 241 242 242 242 242 242 240 240 245 251 253 255 257 258 259 262 264 263 260 259 261 262 265 269 270 269 272 278 281 282 283 283 282 282 283 285 288 290 292 293 295 297 298 299 300 301 303 305 306 308 310 312 313 316 319 323 325 327 326 322 318 315 313 313 313 312 313 315 317 319 321 323 323 323 324 325 327 327 328
234 235 235 236 237 237 237 237 237 237 238 239 239 240 242 243 246 249 251 252 254 257 260 260 257 256 259 262 263 265 268 271 277 282 283 283 283 282 282 283 285 286 289 291 292 293 295 296 297 298 299 301 303 304 305 307 309 311 313 316 319 322 324 326 324 321 317 314 312 312 312 312 313 314 316 318 320 321 322 322 323 324 325 326 327
230 232 232 232 232 232 233 234 234 234 235 236 237 238 238 236 239 245 246 245 245 247 251 253 254 255 258 260 261 264 269 274 278 280 280 279 279 280 281 283 285 286 288 290 291 293 294 295 296 297 299 300 302 303 305 307 309 311 313 316 319 321 323 324 323 320 316 313 311 311 311 311 312 313 315 318 319 320 320 320 321 322 324 325 325
229 231 232 232 231 231 231 233 233 234 236 237 238 240 241 239 240 243 242 239 239 241 247 253 256 257 258 259 261 266 272 275 276 276 276 275 277 280 282 284 285 286 288 290 291 293 293 294 295 296 297 299 301 303 305 307 309 312 314 316 319 321 322 323 322 318 314 311 309 309 309 310 311 313 315 317 318 318 318 319 320 321 323 324 324
230 231 232 233 232 231 232 233 234 236 238 239 240 243 245 242 238 237 238 239 241 245 250 255 257 258 259 260 263 269 273 274 274 273 273 275 278 281 283 284 285 287 288 290 291 291 292 292 294 295 297 299 301 303 305 308 310 312 314 316 318 320 321 322 320 317 313 309 308 307 308 310 311 313 315 316 316 317 317 317 318 320 321 322 323
231 231 232 233 233 233 233 235 237 239 240 242 242 242 240 235 230 230 234 239 243 247 253 257 259 260 261 263 266 270 272 272 272 272 274 276 279 281 283 284 285 287 288 289 289 289 290 291 292 294 297 299 301 304 306 308 310 312 314 316 318 319 320 320 319 315 312 309 308 308 309 311 312 313 314 314 315 315 315 316 317 319 320 321 322
234 235 235 234 234 234 235 238 241 241 241 241 239 234 229 226 226 228 233 238 242 247 253 258 261 262 263 265 268 270 271 271 271 273 274 276 278 280 282 284 285 286 286 287 287 288 289 291 293 295 297 300 302 304 306 308 310 312 314 316 317 318 319 319 317 314 312 310 309 309 310 311 312 312 313 313 313 314 314 315 316 317 318 319 320
234 235 236 237 238 238 237 238 240 240 237 232 228 225 225 226 226 228 231 237 243 249 254 259 261 262 264 267 269 270 270 270 271 272 274 276 278 280 281 282 283 284 285 286 287 288 290 292 294 296 298 300 302 304 306 308 311 313 314 316 317 317 317 317 316 314 312 311 310 310 310 310 311 311 312 312 312 313 314 314 315 316 317 318 319
230 231 232 235 241 245 244 240 237 233 229 224 222 222 225 228 231 233 237 242 248 253 256 259 261 262 265 267 268 269 269 270 271 273 275 277 278 278 279 280 282 283 285 286 287 289 291 293 295 297 299 301 303 305 307 309 311 312 314 315 316 316 316 316 315 313 312 311 310 310 310 310 310 310 310 310 311 312 312 313 314 315 315 316 317
228 227 226 225 229 237 243 244 239 233 229 228 227 228 231 235 239 242 246 250 253 255 256 258 259 261 263 265 267 268 269 270 272 273 274 275 276 277 278 280 282 283 285 286 288 290 291 293 295 297 299 301 303 305 307 309 311 312 314 314 315 315 315 314 313 312 312 311 310 309 309 309 309 309 309 309 310 311 311 312 312 313 314 314 315
229 229 227 226 225 227 233 238 239 237 234 234 234 235 237 239 243 247 252 256 257 257 257 258 259 261 263 265 266 268 269 270 271 272 273 273 274 276 278 280 282 283 285 287 288 290 292 293 295 297 299 301 303 305 307 309 311 312 313 313 313 314 314 313 312 311 311 310 309 309 308 308 308 308 308 309 309 310 310 310 311 312 312 313 314
230 229 230 231 230 229 229 232 235 237 237 237 238 238 239 241 244 248 253 256 256 256 257 258 259 261 263 264 266 267 268 269 271 272 272 273 275 277 279 281 282 284 285 287 289 290 292 294 295 297 299 301 303 305 307 308 310 311 312 312 312 312 312 312 311 311 311 310 309 308 307 307 307 308 308 308 309 309 309 310 310 311 311 312 313
232 228 227 227 228 228 229 232 234 237 239 239 240 240 241 243 246 250 253 254 255 256 257 258 259 261 262 263 265 267 268 270 272 273 274 276 277 279 280 281 283 284 286 288 289 291 292 294 295 297 299 301 303 305 307 308 309 310 310 311 311 311 311 311 311 311 310 310 309 308 307 307 307 307 307 308 308 308 308 309 309 309 310 310 311
233 229 227 227 227 228 231 234 237 238 239 240 240 241 243 246 248 251 253 254 255 256 257 259 260 262 263 264 266 267 269 271 272 274 275 276 278 279 280 282 283 285 286 288 289 291 292 294 295 297 299 301 303 305 306 307 308 309 309 309 309 310 310 310 310 310 310 309 308 307 307 307 307 307 307 307 307 307 307 307 308 308 308 309 310
233 232 232 233 233 234 237 239 241 241 241 241 241 242 244 247 250 252 253 254 255 256 257 259 261 263 264 266 267 268 269 270 272 273 274 276 277 279 280 282 284 285 286 288 289 290 292 294 295 297 299 301 303 304 305 306 307 308 308 308 308 308 309 309 309 309 308 307 306 306 306 306 306 306 306 306 306 306 306 306 306 306 307 307 308
233 233 234 236 237 239 241 242 242 243 244 244 244 244 246 248 251 252 253 254 255 256 258 259 261 263 265 266 267 268 269 271 272 274 275 276 278 280 281 282 283 284 286 287 288 290 292 294 296 298 300 301 303 304 305 306 306 306 306 306 307 307 308 308 307 307 306 305 304 304 304 304 304 304 304 304 304 304 304 304 305 305 305 306 306
Height
10668 10673 10676 10680 10682 10684 10685 10685 10685 10687 10690 10692 10692 10692 10692 10693 10694 10695 10695 10695 10695 10695 10694 10694 10693 10693 10692 10691 10690 10689 10688 10687 10687 10686 10685 10683 10682 10681 10680 10678 10676 10674 10673 10672 10670 10668 10666 10663 10660 10657 10654 10650 10647 10643 10638 10634 10630 10625 10621 10617 10613 10609 10605 10601 10596 10592 10587 10583 10578 10574 10571 10567 10562 10557 10552 10547 10542 10537 10533 10529 10524 10518 10513 10507 10501
10663 10667 10671 10674 10676 10678 10679 10680 10681 10683 10684 10686 10687 10687 10687 10688 10689 10690 10690 10690 10690 10690 10690 10690 10689 10689 10688 10687 10685 10685 10684 10683 10682 10682 10681 10680 10679 10677 10675 10674 10672 10670 10669 10668 10666 10664 10662 10659 10656 10653 10650 10647 10643 10639 10635 10630 10625 10621 10617 10613 10609 10605 10601 10596 10592 10587 10582 10577 10573 10569 10565 10561 10556 10552 10547 10542 10537 10532 10527 10523 10518 10513 10507 10501 10495
10658 10662 10665 10668 10670 10672 10674 10675 10676 10678 10679 10680 10681 10681 10682 10683 10685 10685 10685 10685 10685 10685 10686 10686 10685 10685 10684 10683 10682 10681 10680 10679 10678 10678 10677 10676 10675 10673 10671 10669 10668 10667 10666 10664 10662 10660 10658 10655 10652 10649 10646 10643 10639 10635 10631 10626 10621 10617 10613 10609 10605 10601 10596 10592 10588 10583 10578 10573 10568 10563 10559 10555 10550 10546 10541 10536 10531 10526 10521 10516 10512 10507 10501 10495 10489
10654 10658 10661 10663 10665 10667 10669 10670 10671 10672 10673 10674 10676 10676 10678 10679 10680 10680 10680 10681 10681 10682 10682 10681 10681 10681 10680 10679 10678 10677 10676 10675 10675 10674 10674 10672 10671 10669 10667 10665 10664 10663 10662 10660 10658 10656 10654 10651 10648 10645 10642 10639 10635 10631 10627 10622 10617 10613 10608 10604 10600 10597 10592 10588 10583 10578 10573 10568 10563 10558 10553 10549 10544 10540 10536 10531 10526 10521 10515 10509 10504 10500 10495 10488 10482
10651 10653 10656 10658 10660 10662 10663 10665 10666 10667 10668 10669 10671 10672 10674 10676 10676 10676 10676 10677 10677 10677 10677 10677 10677 10677 10676 10675 10674 10673 10672 10672 10671 10671 10670 10668 10667 10665 10663 10661 10660 10659 10658 10656 10654 10652 10650 10647 10644 10641 10638 10634 10630 10626 10622 10618 10614 10610 10605 10601 10597 10593 10588 10584 10578 10573 10568 10563 10558 10552 10548 10543 10538 10534 10530 10526 10521 10516 10510 10503 10496 10490 10486 10481 10475
10646 10648 10651 10653 10655 10657 10658 10660 10660 10661 10663 10664 10666 10668 10670 10671 10671 10671 10672 10673 10673 10673 10673 10673 10673 10672 10671 10670 10670 10669 10668 10668 10668 10667 10666 10664 10663 10661 10659 10658 10657 10656 10654 10652 10650 10648 10646 10643 10640 10637 10633 10630 10626 10622 10618 10615 10611 10606 10602 10598 10594 10589 10584 10579 10574 10569 10563 10558 10552 10547 10542 10537 10533 10529 10524 10520 10516 10511 10505 10499 10491 10484 10477 10472 10467
10641 10643 10646 10648 10650 10652 10653 10654 10655 10657 10658 10660 10663 10665 10666 10667 10667 10668 10669 10669 10669 10669 10669 10669 10669 10668 10667 10666 10666 10665 10665 10664 10664 10663 10661 10660 10658 10657 10655 10653 10653 10652 10650 10648 10646 10644 10641 10639 10636 10633 10629 10626 10622 10618 10614 10610 10607 10603 10599 10595 10590 10586 10581 10575 10570 10564 10558 10553 10547 10542 10537 10532 10528 10523 10518 10514 10509 10504 10498 10493 10487 10480 10472 10464 10457
10635 10638 10640 10643 10645 10646 10648 10649 10651 10653 10655 10657 10659 10661 10662 10662 10663 10664 10665 10665 10665 10666 10666 10665 10665 10664 10663 10663 10662 10661 10660 10660 10659 10658 10657 10655 10654 10652 10650 10649 10648 10647 10646 10644 10642 10640 10637 10635 10632 10629 10625 10622 10619 10615 10611 10607 10603 10599 10595 10591 10587 10582 10577 10571 10565 10559 10554 10548 10542 10536 10532 10527 10523 10518 10513 10508 10503 10497 10492 10486 10480 10474 10467 10459 10450
10630 10632 10635 10637 10639 10642 10644 10645 10647 10649 10651 10653 10655 10656 10657 10658 10659 10660 10661 10661 10662 10662 10662 10662 10661 10661 10660 10659 10658 10657 10656 10656 10655 10654 10652 10651 10650 10648 10646 10645 10644 10643 10642 10640 10638 10636 10633 10631 10628 10625 10621 10618 10615 10611 10608 10604 10600 10595 10591 10587 10583 10578 10573 10567 10561 10555 10549 10542 10536 10531 10527 10522 10518 10513 10508 10504 10498 10493 10487 10481 10475 10468 10461 10454 10446
10624 10626 10629 10631 10634 10637 10639 10641 10643 10645 10647 10649 10650 10651 10652 10654 10656 10656 10656 10657 10657 10658 10658 10658 10658 10658 10656 10655 10654 10653 10653 10652 10650 10649 10648 10647 10646 10644 10642 10641 10640 10639 10637 10636 10634 10631 10629 10627 10624 10621 10617 10614 10610 10607 10603 10599 10595 10591 10587 10583 10578 10573 10568 10562 10556 10550 10543 10537 10531 10527 10522 10518 10513 10509 10504 10499 10494 10489 10483 10477 10472 10465 10457 10449 10441
10618 10620 10623 10626 10629 10633 10635 10637 10640 10642 10643 10645 10646 10647 10648 10650 10651 10651 10652 10652 10653 10654 10654 10654 10654 10654 10653 10651 10650 10649 10649 10648 10646 10645 10644 10643 10642 10640 10638 10637 10635 10634 10633 10631 10630 10627 10625 10622 10619 10616 10613 10609 10606 10602 10599 10595 10591 10587 10582 10577 10573 10568 10563 10558 10552 10545 10539 10533 10527 10523 10518 10514 10509 10505 10500 10495 10490 10485 10479 10474 10468 10461 10454 10446 10437
10613 10615 10618 10622 10625 10628 10631 10633 10636 10638 10639 10641 10642 10643 10644 10646 10647 10647 10647 10647 10649 10650 10650 10650 10650 10649 10648 10647 10646 10645 10645 10644 10642 10641 10640 10639 10638 10636 10634 10632 10631 10629 10628 10627 10626 10623 10621 10618 10615 10612 10608 10605 10602 10598 10594 10591 10587 10583 10577 10572 10568 10564 10559 10553 10548 10541 10535 10529 10523 10519 10514 10510 10505 10501 10496 10491 10486 10481 10476 10470 10464 10457 10450 10443 10434
10608 10611 10615 10618 10621 10624 10626 10629 10631 10633 10635 10637 10638 10640 10641 10642 10642 10642 10642 10643 10645 10645 10645 10645 10646 10645 10644 10643 10641 10641 10640 10639 10638 10637 10636 10635 10633 10632 10629 10627 10626 10625 10624 10623 10621 10619 10616 10614 10611 10608 10604 10601 10597 10594 10590 10587 10583 10578 10573 10568 10564 10560 10555 10549 10543 10537 10531 10525 10520 10515 10510 10506 10501 10497 10492 10488 10483 10478 10472 10466 10459 10453 10446 10439 10431
10604 10608 10612 10615 10617 10620 10622 10625 10627 10629 10631 10633 10635 10636 10636 10637 10638 10638 10639 10640 10640 10641 10641 10641 10641 10640 10639 10638 10637 10636 10635 10635 10634 10633 10632 10630 10628 10627 10625 10623 10622 10621 10620 10619 10617 10614 10612 10609 10607 10604 10600 10597 10593 10590 10586 10582 10578 10574 10570 10565 10561 10556 10551 10544 10538 10532 10526 10521 10516 10511 10507 10502 10498 10493 10489 10484 10479 10474 10468 10462 10455 10448 10440 10433 10427
10601 10605 10608 10611 10613 10615 10618 10620 10622 10625 10627 10629 10630 10631 10632 10633 10634 10635 10635 10636 10636 10637 10636 10636 10636 10636 10635 10634 10632 10631 10630 10630 10629 10629 10627 10625 10623 10621 10620 10619 10618 10616 10616 10614 10613 10610 10608 10605 10603 10600 10597 10593 10590 10586 10582 10578 10574 10570 10566 10562 10557 10552 10546 10540 10534 10528 10522 10517 10513 10508 10503 10499 10494 10490 10485 10480 10475 10470 10464 10458 10450 10443 10436 10428 10421
10597 10600 10603 10606 10608 10610 10613 10615 10617 10619 10621 10624 10626 10627 10628 10629 10629 10631 10632 10632 10632 10632 10632 10631 10631 10631 10631 10629 10628 10626 10625 10625 10625 10624 10622 10619 10618 10617 10615 10614 10613 10613 10612 10610 10609 10607 10604 10602 10599 10596 10593 10589 10586 10582 10578 10574 10570 10566 10562 10558 10553 10548 10542 10536 10530 10524 10519 10514 10509 10504 10500 10495 10491 10486 10481 10476 10471 10466 10460 10453 10446 10439 10432 10424 10416
10592 10595 10598 10601 10603 10605 10607 10609 10611 10613 10616 10619 10621 10622 10623 10624 10625 10627 10627 10628 10628 10628 10627 10627 10627 10626 10626 10625 10623 10621 10619 10620 10620 10618 10616 10614 10613 10612 10611 10610 10609 10609 10608 10606 10604 10603 10600 10598 10595 10592 10589 10586 10582 10578 10574 10570 10566 10562 10557 10553 10549 10543 10538 10532 10526 10521 10515 10510 10505 10500 10496 10491 10487 10482 10477 10472 10467 10462 10456 10449 10442 10436 10429 10422 10414
10586 10589 10592 10594 10596 10598 10601 10603 10606 10609 10612 10614 10616 10618 10619 10620 10621 10622 10623 10623 10623 10623 10623 10623 10622 10622 10622 10621 10618 10616 10615 10615 10614 10613 10611 10609 10608 10607 10606 10605 10604 10604 10603 10602 10600 10599 10596 10594 10591 10588 10585 10582 10578 10574 10570 10566 10561 10557 10553 10549 10544 10539 10533 10528 10523 10517 10512 10506 10501 10496 10491 10486 10482 10478 10473 10468 10463 10458 10452 10445 10438 10431 10425 10419 10411
10580 10583 10585 10588 10591 10594 10596 10599 10601 10604 10607 10610 10612 10614 10615 10616 10616 10617 10617 10618 10619 10619 10618 10618 10617 10617 10618 10618 10615 10613 10612 10610 10609 10608 10605 10603 10602 10602 10601 10600 10600 10599 10598 10597 10596 10594 10592 10590 10587 10584 10581 10578 10574 10570 10566 10561 10557 10553 10548 10544 10540 10535 10529 10524 10518 10513 10507 10502 10496 10491 10486 10482 10478 10473 10468 10463 10458 10453 10448 10441 10434 10428 10421 10415 10408
10573 10577 10580 10584 10587 10590 10592 10594 10596 10599 10602 10605 10607 10610 10611 10611 10611 10611 10612 10613 10614 10614 10613 10613 10613 10613 10614 10614 10611 10609 10608 10606 10604 10603 10599 10596 10596 10595 10595 10595 10595 10594 10594 10593 10592 10590 10588 10585 10583 10580 10577 10574 10570 10566 10561 10557 10553 10548 10544 10539 10535 10530 10525 10519 10514 10508 10502 10497 10491 10486 10481 10477 10473 10468 10463 10458 10454 10449 10443 10437 10431 10424 10418 10412 10405
10569 10574 10577 10580 10582 10584 10585 10588 10590 10593 10597 10600 10603 10605 10606 10606 10606 10606 10607 10608 10608 10608 10608 10607 10608 10609 10610 10610 10607 10604 10604 10603 10601 10598 10595 10591 10589 10589 10589 10590 10590 10589 10589 10589 10587 10585 10583 10581 10579 10576 10573 10570 10566 10562 10557 10553 10549 10544 10540 10535 10531 10526 10520 10514 10509 10503 10497 10492 10486 10481 10476 10472 10468 10463 10458 10454 10449 10444 10439 10433 10427 10420 10415 10409 10402
10566 10569 10572 10573 10575 10577 10579 10581 10584 10588 10592 10595 10597 10599 10600 10601 10601 10601 10602 10602 10602 10602 10602 10602 10602 10603 10604 10604 10602 10600 10600 10599 10597 10595 10591 10586 10584 10583 10584 10584 10584 10584 10584 10584 10582 10580 10579 10577 10575 10572 10569 10566 10562 10557 10553 10549 10544 10540 10536 10531 10527 10522 10516 10510 10504 10498 10492 10487 10481 10476 10471 10466 10462 10458 10453 10449 10445 10440 10434 10429 10423 10417 10411 10406 10400
10560 10563 10565 10567 10569 10570 10573 10576 10580 10584 10588 10591 10593 10594 10594 10595 10595 10596 10596 10597 10596 10596 10597 10597 10597 10597 10597 10597 10596 10595 10594 10594 10592 10591 10587 10583 10580 10579 10580 10580 10580 10580 10580 10579 10578 10576 10574 10573 10570 10568 10565 10561 10557 10553 10548 10544 10540 10536 10531 10527 10523 10518 10511 10505 10499 10493 10487 10481 10475 10470 10466 10461 10457 10452 10448 10444 10440 10435 10430 10424 10418 10412 10407 10403 10397
10554 10557 10559 10561 10564 10566 10570 10573 10577 10581 10585 10587 10588 10589 10588 10589 10589 10590 10591 10591 10591 10591 10591 10592 10592 10592 10590 10590 10590 10589 10588 10588 10587 10586 10583 10578 10575 10576 10576 10576 10577 10576 10575 10574 10573 10572 10570 10568 10565 10563 10560 10557 10553 10548 10544 10540 10535 10531 10526 10522 10518 10512 10506 10500 10494 10487 10481 10475 10469 10465 10460 10456 10451 10447 10443 10440 10435 10430 10425 10420 10414 10408 10403 10398 10392
10549 10551 10553 10556 10559 10562 10565 10568 10572 10577 10581 10583 10583 10582 10583 10583 10583 10584 10585 10585 10586 10586 10586 10587 10587 10586 10585 10584 10584 10584 10583 10582 10582 10581 10577 10573 10571 10572 10572 10572 10572 10572 10571 10570 10569 10567 10565 10563 10561 10558 10556 10553 10549 10544 10540 10535 10531 10526 10522 10517 10512 10506 10500 10494 10488 10482 10476 10469 10464 10459 10455 10450 10446 10442 10439 10435 10431 10425 10420 10415 10409 10403 10398 10392 10387
10543 10546 10548 10551 10554 10557 10560 10563 10568 10572 10576 10577 10577 10577 10578 10578 10579 10580 10580 10580 10581 10581 10582 10582 10582 10581 10579 10578 10578 10579 10579 10578 10578 10577 10574 10570 10569 10568 10568 10568 10568 10567 10566 10565 10564 10563 10561 10558 10557 10554 10551 10548 10544 10540 10536 10531 10526 10522 10518 10513 10507 10502 10496 10490 10483 10477 10470 10464 10459 10455 10450 10446 10442 10438 10434 10430 10426 10421 10415 10410 10405 10399 10394 10387 10381
10537 10539 10542 10545 10548 10551 10554 10558 10563 10567 10570 10571 10571 10572 10573 10573 10574 10576 10577 10576 10576 10577 10577 10578 10578 10577 10576 10573 10572 10573 10573 10574 10574 10574 10571 10568 10566 10564 10563 10563 10563 10562 10561 10560 10559 10558 10556 10554 10552 10549 10546 10542 10539 10535 10531 10526 10522 10517 10513 10508 10502 10497 10491 10485 10479 10472 10466 10460 10455 10450 10446 10441 10438 10434 10430 10426 10422 10416 10411 10406 10401 10395 10390 10384 10377
10530 10533 10536 10540 10543 10545 10548 10552 10555 10559 10562 10564 10564 10566 10567 10567 10568 10572 10573 10572 10572 10572 10573 10573 10573 10573 10572 10570 10568 10568 10568 10568 10569 10569 10567 10564 10562 10560 10559 10559 10559 10557 10556 10555 10553 10552 10550 10548 10546 10543 10540 10536 10533 10529 10525 10521 10517 10512 10507 10502 10497 10492 10486 10481 10474 10467 10461 10455 10451 10446 10441 10437 10433 10429 10425 10422 10417 10412 10407 10402 10397 10392 10387 10381 10375
10524 10527 10531 10534 10537 10539 10541 10544 10546 10551 10555 10557 10559 10561 10562 10561 10562 10564 10566 10566 10566 10568 10569 10569 10570 10570 10568 10565 10564 10564 10564 10563 10563 10562 10561 10558 10556 10555 10554 10554 10553 10552 10550 10549 10547 10545 10543 10542 10540 10537 10534 10530 10527 10524 10520 10515 10511 10507 10502 10497 10492 10487 10482 10476 10469 10462 10456 10451 10446 10442 10437 10433 10429 10425 10421 10417 10413 10408 10403 10398 10394 10389 10384 10379 10373
10520 10523 10526 10529 10530 10531 10533 10535 10539 10545 10549 10551 10552 10552 10553 10554 10554 10555 10557 10560 10561 10562 10564 10564 10565 10566 10563 10560 10559 10560 10560 10559 10557 10554 10553 10552 10551 10550 10549 10548 10546 10546 10545 10543 10541 10539 10537 10535 10533 10530 10527 10524 10521 10518 10514 10510 10505 10501 10497 10492 10487 10482 10477 10471 10464 10457 10451 10446 10441 10437 10433 10429 10425 10421 10417 10413 10409 10405 10400 10395 10390 10386 10381 10376 10371
10515 10518 10519 10521 10522 10523 10526 10531 10536 10542 10544 10545 10546 10546 10546 10548 10549 10549 10551 10554 10555 10555 10557 10558 10559 10559 10557 10555 10555 10554 10555 10555 10552 10547 10545 10545 10544 10543 10543 10541 10540 10539 10538 10537 10534 10532 10529 10527 10525 10523 10521 10518 10515 10512 10509 10504 10499 10495 10490 10486 10481 10476 10471 10465 10459 10452 10446 10441 10437 10433 10429 10425 10421 10417 10413 10409 10405 10401 10397 10392 10387 10383 10378 10374 10369
10507 10509 10510 10512 10515 10518 10522 10527 10531 10536 10538 10539 10541 10543 10543 10544 10545 10544 10547 10550 10550 10548 10549 10550 10551 10551 10550 10549 10549 10548 10548 10548 10546 10541 10539 10537 10536 10536 10536 10535 10534 10533 10532 10530 10527 10524 10522 10520 10518 10516 10514 10511 10508 10506 10502 10498 10494 10489 10484 10480 10475 10470 10465 10459 10453 10447 10441 10436 10432 10428 10424 10420 10416 10413 10409 10404 10400 10397 10393 10388 10384 10380 10375 10371 10367
10498 10500 10503 10506 10509 10513 10517 10520 10524 10529 10532 10533 10535 10537 10538 10539 10540 10540 10542 10545 10544 10542 10541 10541 10542 10542 10541 10541 10542 10542 10541 10540 10538 10535 10532 10531 10529 10529 10528 10528 10527 10527 10525 10523 10519 10516 10515 10514 10511 10508 10507 10504 10501 10498 10495 10492 10488 10484 10479 10475 10470 10465 10459 10454 10448 10441 10436 10431 10427 10423 10419 10415 10412 10408 10404 10400 10396 10392 10388 10384 10381 10376 10372 10368 10363
10491 10494 10498 10500 10503 10507 10510 10513 10518 10521 10523 10525 10528 10531 10532 10534 10535 10537 10538 10539 10537 10535 10535 10535 10534 10533 10532 10532 10533 10533 10533 10531 10530 10528 10526 10525 10523 10523 10522 10521 10521 10519 10517 10515 10512 10509 10508 10507 10505 10501 10499 10497 10494 10492 10489 10485 10482 10478 10474 10470 10465 10460 10454 10448 10442 10436 10430 10426 10422 10418 10415 10411 10407 10403 10398 10395 10391 10388 10384 10380 10377 10373 10368 10364 10360
10485 10488 10490 10493 10497 10501 10504 10507 10510 10513 10515 10518 10521 10524 10527 10529 10530 10532 10534 10533 10530 10528 10529 10528 10526 10525 10525 10526 10526 10525 10524 10523 10522 10521 10520 10519 10517 10517 10516 10515 10514 10512 10510 10508 10505 10502 10500 10499 10497 10494 10492 10490 10487 10485 10482 10479 10475 10472 10468 10464 10460 10455 10449 10443 10436 10431 10425 10421 10417 10414 10410 10406 10402 10398 10394 10390 10387 10384 10380 10376 10373 10369 10365 10360 10356
10477 10481 10484 10488 10492 10494 10497 10500 10503 10505 10508 10512 10516 10519 10523 10525 10525 10527 10529 10527 10523 10521 10519 10518 10517 10519 10520 10519 10518 10517 10517 10516 10515 10514 10513 10511 10510 10510 10509 10508 10506 10504 10502 10501 10498 10495 10492 10491 10489 10487 10484 10482 10479 10477 10474 10472 10468 10465 10461 10457 10453 10448 10443 10437 10431 10425 10421 10416 10412 10409 10405 10402 10398 10394 10389 10386 10383 10379 10375 10372 10368 10365 10361 10357 10353
10471 10475 10479 10482 10485 10487 10490 10492 10496 10499 10503 10506 10510 10514 10517 10518 10519 10520 10521 10519 10516 10514 10511 10509 10510 10512 10512 10512 10511 10510 10510 10509 10508 10507 10505 10504 10503 10502 10501 10500 10499 10497 10495 10493 10491 10489 10487 10485 10482 10479 10477 10474 10472 10469 10467 10464 10461 10457 10453 10450 10447 10442 10437 10432 10426 10420 10415 10411 10407 10403 10400 10396 10393 10389 10385 10382 10379 10375 10371 10367 10364 10360 10357 10353 10349
10464 10468 10472 10475 10478 10480 10483 10486 10490 10494 10496 10499 10504 10507 10509 10511 10513 10514 10511 10509 10508 10507 10504 10503 10504 10505 10505 10504 10504 10503 10502 10501 10500 10499 10498 10497 10496 10494 10493 10492 10491 10490 10488 10486 10484 10482 10480 10478 10475 10472 10469 10467 10464 10462 10459 10457 10453 10450 10446 10443 10439 10435 10431 10426 10420 10415 10410 10405 10402 10398 10394 10391 10388 10384 10380 10377 10374 10370 10366 10363 10359 10356 10353 10349 10345
10457 10461 10465 10469 10471 10474 10477 10480 10483 10486 10489 10492 10497 10500 10502 10504 10505 10503 10500 10499 10499 10498 10496 10495 10496 10498 10499 10499 10497 10495 10494 10494 10493 10492 10491 10490 10488 10486 10485 10484 10483 10481 10480 10478 10476 10474 10472 10469 10467 10464 10462 10459 10457 10454 10451 10449 10446 10442 10439 10435 10432 10428 10424 10419 10414 10409 10404 10400 10396 10393 10390 10386 10383 10379 10375 10372 10369 10365 10362 10358 10355 10352 10349 10345 10341
10452 10455 10459 10462 10465 10469 10471 10473 10476 10479 10482 10486 10490 10493 10495 10496 10495 10492 10490 10490 10490 10489 10488 10488 10489 10491 10492 10491 10490 10488 10487 10486 10485 10485 10484 10482 10480 10479 10477 10475 10474 10473 10472 10470 10468 10466 10464 10461 10459 10457 10454 10451 10449 10446 10443 10440 10437 10434 10431 10427 10424 10420 10416 10412 10408 10403 10398 10394 10390 10387 10384 10380 10377 10374 10370 10367 10364 10360 10357 10354 10350 10347 10344 10341 10337
10445 10449 10452 10456 10460 10463 10465 10467 10470 10474 10477 10480 10483 10486 10487 10486 10484 10482 10481 10480 10480 10480 10481 10481 10482 10483 10483 10483 10482 10481 10479 10478 10478 10477 10476 10475 10473 10471 10469 10467 10466 10465 10464 10463 10461 10458 10456 10454 10452 10449 10446 10443 10441 10438 10435 10432 10429 10426 10423 10419 10416 10412 10409 10405 10401 10396 10392 10387 10384 10380 10377 10374 10371 10368 10365 10362 10359 10355 10352 10349 10345 10342 10339 10336 10333
10440 10444 10448 10451 10454 10457 10459 10461 10464 10467 10470 10472 10474 10477 10478 10476 10474 10473 10472 10471 10471 10472 10472 10473 10474 10474 10474 10474 10474 10473 10472 10471 10471 10471 10469 10467 10466 10464 10461 10460 10459 10458 10457 10455 10453 10451 10449 10446 10444 10441 10438 10435 10433 10431 10429 10425 10422 10419 10415 10411 10408 10404 10401 10397 10393 10389 10385 10381 10377 10373 10370 10367 10364 10362 10359 10356 10353 10350 10347 10344 10340 10337 10334 10331 10328
10435 10439 10442 10446 10448 10451 10453 10454 10455 10457 10460 10462 10463 10465 10466 10465 10464 10463 10463 10463 10463 10464 10464 10465 10466 10465 10465 10466 10466 10465 10465 10465 10465 10463 10461 10459 10458 10456 10454 10452 10451 10450 10449 10448 10446 10443 10441 10438 10436 10433 10430 10428 10425 10423 10421 10418 10415 10411 10407 10404 10400 10396 10393 10390 10386 10381 10377 10374 10370 10367 10364 10361 10358 10356 10353 10350 10348 10345 10342 10338 10335 10332 10329 10326 10323
10429 10433 10438 10442 10444 10444 10444 10445 10446 10448 10449 10451 10453 10454 10455 10456 10456 10455 10455 10455 10456 10456 10456 10457 10457 10457 10458 10458 10457 10457 10458 10458 10457 10455 10454 10452 10450 10448 10446 10445 10444 10442 10441 10439 10437 10435 10433 10430 10428 10425 10422 10420 10417 10415 10413 10410 10406 10403 10399 10396 10392 10388 10385 10382 10378 10373 10370 10366 10363 10360 10357 10354 10352 10350 10347 10345 10342 10339 10336 10333 10330 10327 10324 10321 10318
10421 10426 10431 10436 10438 10438 10437 10436 10438 10440 10441 10443 10444 10445 10446 10447 10448 10448 10447 10447 10448 10448 10448 10449 10449 10449 10449 10449 10449 10449 10449 10449 10448 10447 10445 10444 10442 10440 10438 10436 10435 10434 10432 10431 10429 10427 10425 10423 10421 10418 10415 10412 10409 10406 10404 10400 10397 10394 10391 10387 10384 10381 10378 10374 10370 10366 10363 10359 10356 10353 10350 10348 10346 10343 10341 10339 10336 10333 10330 10327 10324 10321 10318 10315 10312
10413 10418 10424 10428 10430 10430 10429 10428 10430 10432 10433 10433 10434 10436 10437 10437 10438 10438 10439 10439 10439 10440 10440 10441 10441 10442 10441 10441 10440 10440 10440 10439 10438 10437 10435 10434 10433 10431 10430 10428 10427 10425 10423 10422 10420 10418 10417 10415 10413 10410 10407 10405 10401 10398 10395 10392 10389 10386 10383 10379 10376 10373 10370 10367 10363 10360 10356 10353 10349 10346 10343 10341 10339 10337 10335 10333 10330 10327 10324 10321 10319 10315 10312 10309 10306
10406 10411 10416 10418 10419 10419 10419 10419 10420 10421 10423 10423 10425 10426 10426 10427 10427 10428 10429 10429 10430 10431 10432 10432 10433 10433 10433 10432 10431 10430 10430 10429 10428 10427 10425 10424 10424 10423 10422 10420 10419 10416 10415 10414 10412 10409 10408 10408 10405 10402 10400 10397 10394 10391 10388 10385 10381 10378 10375 10371 10368 10365 10362 10359 10356 10352 10349 10346 10342 10339 10336 10334 10332 10330 10328 10326 10323 10320 10318 10315 10312 10309 10306 10303 10301
10398 10402 10405 10406 10406 10408 10409 10409 10410 10412 10413 10415 10416 10416 10416 10417 10418 10418 10419 10420 10420 10421 10421 10422 10422 10423 10423 10423 10422 10421 10420 10420 10419 10418 10416 10415 10414 10414 10413 10411 10410 10408 10407 10405 10403 10400 10399 10398 10397 10394 10392 10389 10386 10383 10380 10377 10373 10370 10366 10362 10359 10357 10354 10351 10348 10345 10342 10338 10335 10331 10329 10326 10325 10323 10321 10319 10316 10313 10311 10308 10306 10303 10300 10297 10295
10389 10392 10394 10395 10397 10398 10400 10401 10402 10403 10404 10405 10406 10407 10408 10409 10409 10410 10410 10411 10411 10411 10412 10412 10412 10413 10413 10414 10413 10413 10412 10412 10411 10409 10408 10406 10405 10404 10403 10403 10401 10400 10398 10396 10394 10391 10389 10388 10387 10385 10383 10380 10377 10374 10371 10368 10365 10361 10358 10354 10351 10348 10345 10342 10339 10337 10334 10331 10327 10324 10321 10319 10317 10315 10313 10311 10309 10306 10304 10301 10299 10296 10293 10291 10288
10380 10383 10385 10387 10388 10390 10391 10392 10394 10394 10394 10395 10397 10398 10399 10400 10400 10401 10402 10402 10402 10403 10403 10403 10403 10404 10404 10404 10403 10403 10403 10402 10401 10400 10398 10398 10397 10396 10395 10394 10393 10392 10390 10387 10385 10382 10381 10379 10377 10375 10373 10371 10368 10365 10362 10360 10356 10353 10349 10345 10342 10339 10337 10334 10331 10328 10326 10323 10319 10316 10313 10311 10309 10307 10306 10304 10301 10299 10296 10294 10292 10289 10287 10284 10281
10370 10373 10376 10378 10379 10380 10381 10382 10383 10384 10385 10386 10388 10389 10390 10391 10391 10392 10393 10393 10393 10394 10394 10394 10394 10394 10394 10393 10393 10393 10393 10393 10392 10391 10390 10389 10388 10387 10386 10385 10384 10382 10381 10378 10376 10373 10371 10369 10367 10365 10362 10360 10358 10355 10353 10350 10347 10344 10340 10336 10333 10330 10328 10325 10323 10320 10317 10314 10311 10308 10305 10303 10301 10299 10298 10296 10294 10292 10289 10287 10284 10282 10279 10277 10274